Starlink 5830

operational
NORAD ID: 57065 Int'l Des: 2023-088 Owner: SPXS Country: US Constellation: starlink
LEOCIRCULAR

About Starlink 5830

Description loading...

Live Position

Loading 3D Globe...

Upcoming Passes

Altitude History

Altitude vs Time

uPlot chart will show altitude changes over time

Two-Line Element Set

1 57065U 23088T 25260.23951100 -.00000188 00000-0 11299-5 0 9995
2 57065 43.0037 330.3391 0001181 270.8245 89.2462 15.02534099123299
Epoch: Sep 17, 2025 • Age: 16 hours

Current Status

Altitude 570.0 km
Velocity 7.58 km/s
Sub-Earth Point -38.99°S, 51.04°W
Launch Date Jun 22, 2023
Age 2.2 years
Type internet

Technical Details

Classification Payload
Mass 305.00 kg
Dry Mass 290.00 kg
Total Mass 305.00 kg
Length 0.20 m
Diameter 2.80 m
Span 9.00 m
Shape Box + pan
Manufacturer SPXS
Bus Type Starlink
Phase Status In Orbit
Owner/State SPXS/US

Large Constellations

Loading constellations...